Defiance, OH

8:19 PM EDT on August 21, 2017 (GMT -0400)
Defiance Memorial

Weather History for KDFI - November, 2012

Change the Weather History Date:

Monday, November 12, 2012

  Actual Average Record
Temperature  
Mean Temperature 48 °F -  
Max Temperature 61 °F 46 °F 73 °F (1949)
Min Temperature 34 °F 31 °F 17 °F (1976)
Degree Days  
Heating Degree Days 18    
Moisture  
Dew Point 38 °F    
Average Humidity 81    
Maximum Humidity 97    
Minimum Humidity 52    
Precipitation  
Precipitation 0.59 in - - ()
Sea Level Pressure  
Sea Level Pressure 30.07 in    
Wind  
Wind Speed 11 mph (WSW)    
Max Wind Speed 17 mph    
Max Gust Speed 25 mph    
Visibility 8 miles    
Events Rain , Snow    
Averages and records for this station are not official NWS values.
T = Trace of Precipitation, MM = Missing Value Source: NWS Daily Summary

Daily Weather History Graph

Daily Weather History Graph

Search for Another Location

Airport or City:

Trip Planner

Search our weather history database for the weather conditions in past years. The results will help you decide how hot, cold, wet, or windy it might be!

Date:

Astronomy

Nov. 12, 2012 Rise Set
Actual Time 7:22 AM EST 5:20 PM EST
Civil Twilight 6:53 AM EST 5:49 PM EST
Nautical Twilight 6:20 AM EST 6:23 PM EST
Astronomical Twilight 5:47 AM EST 6:55 PM EST
Moon 5:46 AM EST (11/12) 4:25 PM EST (11/12)
Length of Visible Light 10h 56m
Length of Day
9h 57m
Waning Crescent, 2% of the Moon is Illuminated
Nov 12
Waning Crescent
Nov 13
New
Nov 20
First Quarter
Nov 28
Full
Dec 6
Last Quarter

Hourly Weather History & Observations

Time (EST) Temp. Windchill Dew Point Humidity Pressure Visibility Wind Dir Wind Speed Gust Speed Precip Events Conditions
12:53 AM 61.0 °F - 43.0 °F 52% 29.96 in 10.0 mi South 17.3 mph 25.3 mph N/A   Overcast
1:53 AM 61.0 °F - 45.0 °F 56% 29.95 in 10.0 mi South 16.1 mph 23.0 mph 0.00 in Rain Light Rain
2:53 AM 55.9 °F - 52.0 °F 87% 29.96 in 6.0 mi South 11.5 mph 19.6 mph 0.05 in Rain Rain
3:18 AM 55.4 °F - 51.8 °F 88% 29.96 in 5.0 mi SSW 11.5 mph 21.9 mph 0.03 in Rain Rain
3:35 AM 55.4 °F - 51.8 °F 88% 29.96 in 5.0 mi South 12.7 mph 20.7 mph 0.07 in Rain Rain
3:53 AM 55.9 °F - 53.1 °F 90% 29.96 in 6.0 mi SSW 15.0 mph - 0.09 in Rain Light Rain
4:50 AM 55.4 °F - 53.6 °F 94% 29.94 in 8.0 mi South 13.8 mph 20.7 mph 0.06 in Rain Light Rain
4:53 AM 55.9 °F - 54.0 °F 93% 29.94 in 8.0 mi South 13.8 mph - 0.07 in Rain Light Rain
5:41 AM 55.4 °F - 53.6 °F 94% 29.94 in 6.0 mi WSW 11.5 mph 23.0 mph 0.02 in Rain Light Rain
5:47 AM 55.4 °F - 51.8 °F 88% 29.94 in 2.5 mi Variable 6.9 mph 18.4 mph 0.06 in Rain Heavy Rain
5:53 AM 54.0 °F - 51.1 °F 90% 29.95 in 2.5 mi WSW 8.1 mph - 0.08 in Rain Rain
5:56 AM 53.6 °F - 51.8 °F 94% 29.94 in 3.0 mi Variable 4.6 mph - 0.01 in Rain Rain
6:03 AM 53.6 °F - 51.8 °F 94% 29.94 in 4.0 mi WSW 6.9 mph - 0.02 in Rain Light Rain
6:53 AM 52.0 °F - 51.1 °F 97% 29.95 in 3.0 mi SW 4.6 mph - 0.12 in Rain Rain
7:01 AM 51.8 °F - 50.0 °F 94% 29.95 in 5.0 mi WSW 5.8 mph - 0.02 in Rain Light Rain
7:53 AM 48.0 °F - 45.0 °F 89% 29.99 in 4.0 mi West 8.1 mph - 0.09 in Rain Light Rain
8:17 AM 46.4 °F 44.3 °F 44.6 °F 93% 29.99 in 10.0 mi Variable 4.6 mph - 0.03 in Rain Light Rain
8:48 AM 46.4 °F 42.9 °F 42.8 °F 87% 30.00 in 10.0 mi Variable 6.9 mph 19.6 mph 0.03 in Rain Light Rain
8:53 AM 45.0 °F 40.6 °F 42.1 °F 90% 30.01 in 10.0 mi West 8.1 mph 19.6 mph 0.03 in Rain Light Rain
9:14 AM 44.6 °F 40.2 °F 41.0 °F 87% 30.02 in 10.0 mi West 8.1 mph - 0.01 in Rain Light Rain
9:53 AM 43.0 °F 38.8 °F 39.9 °F 89% 30.04 in 10.0 mi Variable 6.9 mph - 0.02 in Rain Light Rain
10:15 AM 42.8 °F 37.5 °F 39.2 °F 87% 30.05 in 10.0 mi West 9.2 mph - 0.01 in Rain Light Rain
10:53 AM 39.9 °F 32.9 °F 36.0 °F 86% 30.08 in 10.0 mi WSW 11.5 mph 18.4 mph 0.02 in Rain Light Rain
11:18 AM 39.2 °F 32.0 °F 35.6 °F 87% 30.08 in 10.0 mi West 11.5 mph 20.7 mph 0.00 in Rain Light Rain
11:25 AM 37.4 °F 30.8 °F 35.6 °F 93% 30.09 in 10.0 mi West 9.2 mph 20.7 mph 0.01 in Rain Light Rain
11:35 AM 37.4 °F 29.8 °F 33.8 °F 87% 30.09 in 7.0 mi WSW 11.5 mph 23.0 mph 0.01 in Snow Light Snow
11:42 AM 35.6 °F 29.2 °F 32.0 °F 87% 30.09 in 4.0 mi West 8.1 mph 23.0 mph 0.01 in Snow Light Snow
11:53 AM 36.0 °F 29.0 °F 32.0 °F 86% 30.10 in 3.0 mi West 9.2 mph 21.9 mph 0.02 in Snow Light Snow
12:28 PM 35.6 °F 29.9 °F 33.8 °F 93% 30.08 in 9.0 mi WSW 6.9 mph - 0.00 in Snow Light Snow
12:35 PM 35.6 °F 29.9 °F 33.8 °F 93% 30.08 in 9.0 mi WSW 6.9 mph - 0.00 in   Overcast
12:53 PM 37.0 °F 30.4 °F 34.0 °F 89% 30.09 in 10.0 mi WSW 9.2 mph 16.1 mph 0.00 in   Overcast
1:21 PM 37.4 °F 30.8 °F 32.0 °F 81% 30.08 in 10.0 mi WSW 9.2 mph 19.6 mph N/A   Overcast
1:53 PM 36.0 °F 29.6 °F 30.0 °F 79% 30.12 in 10.0 mi West 8.1 mph 24.2 mph 0.00 in   Overcast
2:22 PM 37.4 °F 30.8 °F 28.4 °F 70% 30.10 in 10.0 mi West 9.2 mph 23.0 mph N/A   Partly Cloudy
2:53 PM 39.9 °F 33.9 °F 28.9 °F 65% 30.12 in 10.0 mi WSW 9.2 mph 19.6 mph N/A   Mostly Cloudy
3:15 PM 39.2 °F 33.0 °F 30.2 °F 70% 30.11 in 10.0 mi WSW 9.2 mph 19.6 mph N/A   Scattered Clouds
3:53 PM 39.0 °F 33.4 °F 26.1 °F 60% 30.14 in 10.0 mi WSW 8.1 mph 19.6 mph N/A   Partly Cloudy
4:53 PM 37.0 °F 29.3 °F 26.1 °F 65% 30.17 in 10.0 mi WSW 11.5 mph 18.4 mph N/A   Partly Cloudy
5:53 PM 35.1 °F 28.6 °F 25.0 °F 67% 30.21 in 10.0 mi WSW 8.1 mph - N/A   Clear
6:53 PM 34.0 °F 27.2 °F 24.1 °F 67% 30.24 in 10.0 mi WSW 8.1 mph 17.3 mph N/A   Clear
7:53 PM 34.0 °F 27.2 °F 23.0 °F 64% 30.27 in 10.0 mi WSW 8.1 mph - N/A   Clear
8:53 PM 34.0 °F 27.2 °F 24.1 °F 67% 30.30 in 10.0 mi WSW 8.1 mph - N/A   Overcast
9:53 PM 35.1 °F 27.9 °F 23.0 °F 61% 30.31 in 10.0 mi WSW 9.2 mph 20.7 mph N/A   Overcast
10:53 PM 35.1 °F 27.4 °F 23.0 °F 61% 30.33 in 10.0 mi WSW 10.4 mph 16.1 mph N/A   Overcast
11:53 PM 35.1 °F 28.6 °F 21.9 °F 59% 30.33 in 10.0 mi West 8.1 mph 16.1 mph N/A   Overcast